Multibeam Report for NBP1203


Ship Name: Nathaniel B. Palmer
Chief Scientist: Vernet, Maria
University of California, San Diego
Source Organization: Marine Geoscience Data System (MGDS)
Start Date: 2012-03-11
End Date: 2012-04-19


View ISO Metadata

Visit the full NCEI Bathymetry Viewer


Multibeam Bathymetry

Cruise Details

Project:
Instrument: Kongsberg EM120

Data Quality

Number of Files: 654
Number of Records: 933665
BATHYMETRY DATA Quantity Percentage
Number of Beams 178330015 100%
Number of Good Beams 138089763 77.43%
Number of Zero Beams 40240252 22.57%
Number of Flagged Beams 0 0%

Navigation Totals

Total Time: 609.7307 hours
Total Track Length: 4091.6743 km
Average Speed: 6.711 km/hr (3.6237 knots)

Cruise Bounds

Northern Extent: -58.006145
Southern Extent: -65.23976
Western Extent: -62.149666
Eastern Extent: -55.17738

Limits

Minimum Sonar Depth 6.04 Maximum Sonar Depth 8.27
Minimum Altitude 0 Maximum Altitude 5700.3198
Minimum Depth 39.15 Maximum Depth 6311.6602

File Information

Full Resolution Bathymetry as collected (raw): 651

Files File Size Description
0002_20120313_210622_raw.all.mb56.gz 8.77MB Simrad multibeam vendor format
0003_20120313_220622_raw.all.mb56.gz 8.77MB Simrad multibeam vendor format
0004_20120313_230622_raw.all.mb56.gz 8.68MB Simrad multibeam vendor format
0005_20120314_000622_raw.all.mb56.gz 8.78MB Simrad multibeam vendor format
0006_20120314_010622_raw.all.mb56.gz 9.07MB Simrad multibeam vendor format
0007_20120314_020622_raw.all.mb56.gz 7.54MB Simrad multibeam vendor format
0008_20120314_025802_raw.all.mb56.gz 8.58MB Simrad multibeam vendor format
0009_20120314_035802_raw.all.mb56.gz 8.60MB Simrad multibeam vendor format
0010_20120314_045802_raw.all.mb56.gz 8.53MB Simrad multibeam vendor format
0011_20120314_055802_raw.all.mb56.gz 8.64MB Simrad multibeam vendor format
0012_20120314_065802_raw.all.mb56.gz 8.59MB Simrad multibeam vendor format
0013_20120314_075802_raw.all.mb56.gz 8.33MB Simrad multibeam vendor format
0014_20120314_085802_raw.all.mb56.gz 8.96MB Simrad multibeam vendor format
0015_20120314_095802_raw.all.mb56.gz 8.70MB Simrad multibeam vendor format
0016_20120314_105802_raw.all.mb56.gz 8.80MB Simrad multibeam vendor format
0017_20120314_115802_raw.all.mb56.gz 6.32MB Simrad multibeam vendor format
0018_20120314_130655_raw.all.mb56.gz 92.1KB Simrad multibeam vendor format
0019_20120314_130737_raw.all.mb56.gz 8.60MB Simrad multibeam vendor format
0020_20120314_140737_raw.all.mb56.gz 8.57MB Simrad multibeam vendor format
0021_20120314_150737_raw.all.mb56.gz 8.59MB Simrad multibeam vendor format
0022_20120314_160737_raw.all.mb56.gz 4.61MB Simrad multibeam vendor format
0023_20120314_163955_raw.all.mb56.gz 8.43MB Simrad multibeam vendor format
0024_20120314_173955_raw.all.mb56.gz 8.60MB Simrad multibeam vendor format
0025_20120314_183955_raw.all.mb56.gz 8.68MB Simrad multibeam vendor format
0026_20120314_193955_raw.all.mb56.gz 9.05MB Simrad multibeam vendor format
0027_20120314_203955_raw.all.mb56.gz 10.11MB Simrad multibeam vendor format
0028_20120314_213955_raw.all.mb56.gz 17.46MB Simrad multibeam vendor format
0029_20120314_223955_raw.all.mb56.gz 19.49MB Simrad multibeam vendor format
0030_20120314_233955_raw.all.mb56.gz 21.19MB Simrad multibeam vendor format
0031_20120315_003955_raw.all.mb56.gz 17.03MB Simrad multibeam vendor format
0032_20120315_013955_raw.all.mb56.gz 3.72MB Simrad multibeam vendor format
0033_20120315_015956_raw.all.mb56.gz 10.86MB Simrad multibeam vendor format
0034_20120315_025956_raw.all.mb56.gz 12.82MB Simrad multibeam vendor format
0035_20120315_035956_raw.all.mb56.gz 16.39MB Simrad multibeam vendor format
0036_20120315_045956_raw.all.mb56.gz 25.99MB Simrad multibeam vendor format
0037_20120315_055956_raw.all.mb56.gz 26.55MB Simrad multibeam vendor format
0038_20120315_065956_raw.all.mb56.gz 28.95MB Simrad multibeam vendor format
0039_20120315_075502_raw.all.mb56.gz 28.87MB Simrad multibeam vendor format
0040_20120315_085502_raw.all.mb56.gz 14.59MB Simrad multibeam vendor format
0041_20120315_152440_raw.all.mb56.gz 1.52MB Simrad multibeam vendor format
0042_20120315_153227_raw.all.mb56.gz 11.83MB Simrad multibeam vendor format
0043_20120315_163227_raw.all.mb56.gz 11.56MB Simrad multibeam vendor format
0044_20120315_173227_raw.all.mb56.gz 13.77MB Simrad multibeam vendor format
0045_20120315_183227_raw.all.mb56.gz 17.40MB Simrad multibeam vendor format
0046_20120315_193227_raw.all.mb56.gz 17.59MB Simrad multibeam vendor format
0047_20120315_203227_raw.all.mb56.gz 15.15MB Simrad multibeam vendor format
0048_20120315_213227_raw.all.mb56.gz 14.20MB Simrad multibeam vendor format
0049_20120315_223227_raw.all.mb56.gz 6.91MB Simrad multibeam vendor format
0050_20120316_030444_raw.all.mb56.gz 13.03MB Simrad multibeam vendor format
0051_20120316_040444_raw.all.mb56.gz 14.80MB Simrad multibeam vendor format
0052_20120316_050444_raw.all.mb56.gz 16.90MB Simrad multibeam vendor format
0053_20120316_060444_raw.all.mb56.gz 14.83MB Simrad multibeam vendor format
0054_20120316_065453_raw.all.mb56.gz 243.1KB Simrad multibeam vendor format
0055_20120316_065618_raw.all.mb56.gz 16.97MB Simrad multibeam vendor format
0056_20120316_075618_raw.all.mb56.gz 23.31MB Simrad multibeam vendor format
0057_20120316_085618_raw.all.mb56.gz 24.34MB Simrad multibeam vendor format
0058_20120316_095618_raw.all.mb56.gz 22.47MB Simrad multibeam vendor format
0059_20120316_105618_raw.all.mb56.gz 21.19MB Simrad multibeam vendor format
0060_20120316_115351_raw.all.mb56.gz 30.28MB Simrad multibeam vendor format
0061_20120316_125351_raw.all.mb56.gz 20.52MB Simrad multibeam vendor format
0062_20120316_135351_raw.all.mb56.gz 5.96MB Simrad multibeam vendor format
0063_20120316_141255_raw.all.mb56.gz 24.53MB Simrad multibeam vendor format
0064_20120316_151255_raw.all.mb56.gz 21.33MB Simrad multibeam vendor format
0065_20120316_161255_raw.all.mb56.gz 24.90MB Simrad multibeam vendor format
0066_20120316_171255_raw.all.mb56.gz 19.77MB Simrad multibeam vendor format
0067_20120316_181255_raw.all.mb56.gz 18.30MB Simrad multibeam vendor format
0068_20120316_191255_raw.all.mb56.gz 17.09MB Simrad multibeam vendor format
0069_20120316_201255_raw.all.mb56.gz 14.91MB Simrad multibeam vendor format
0070_20120316_211255_raw.all.mb56.gz 14.09MB Simrad multibeam vendor format
0071_20120316_221255_raw.all.mb56.gz 14.13MB Simrad multibeam vendor format
0072_20120316_231255_raw.all.mb56.gz 15.32MB Simrad multibeam vendor format
0073_20120317_001255_raw.all.mb56.gz 14.21MB Simrad multibeam vendor format
0074_20120317_011255_raw.all.mb56.gz 16.86MB Simrad multibeam vendor format
0075_20120317_021255_raw.all.mb56.gz 14.05MB Simrad multibeam vendor format
0076_20120317_031255_raw.all.mb56.gz 12.77MB Simrad multibeam vendor format
0077_20120317_041255_raw.all.mb56.gz 13.79MB Simrad multibeam vendor format
0078_20120317_051255_raw.all.mb56.gz 14.33MB Simrad multibeam vendor format
0079_20120317_061255_raw.all.mb56.gz 15.68MB Simrad multibeam vendor format
0080_20120317_071255_raw.all.mb56.gz 17.37MB Simrad multibeam vendor format
0081_20120317_081255_raw.all.mb56.gz 15.02MB Simrad multibeam vendor format
0082_20120317_103147_raw.all.mb56.gz 9.31MB Simrad multibeam vendor format
0083_20120317_110154_raw.all.mb56.gz 16.60MB Simrad multibeam vendor format
0084_20120317_114855_raw.all.mb56.gz 10.42MB Simrad multibeam vendor format
0085_20120317_122020_raw.all.mb56.gz 7.49MB Simrad multibeam vendor format
0086_20120317_124311_raw.all.mb56.gz 18.29MB Simrad multibeam vendor format
0087_20120317_134311_raw.all.mb56.gz 18.38MB Simrad multibeam vendor format
0088_20120317_144311_raw.all.mb56.gz 18.84MB Simrad multibeam vendor format
0089_20120317_154311_raw.all.mb56.gz 20.39MB Simrad multibeam vendor format
0090_20120317_164311_raw.all.mb56.gz 11.47MB Simrad multibeam vendor format
0091_20120317_172938_raw.all.mb56.gz 20.05MB Simrad multibeam vendor format
0092_20120317_182938_raw.all.mb56.gz 12.20MB Simrad multibeam vendor format
0093_20120317_190822_raw.all.mb56.gz 17.99MB Simrad multibeam vendor format
0094_20120317_200822_raw.all.mb56.gz 21.51MB Simrad multibeam vendor format
0095_20120317_210822_raw.all.mb56.gz 20.46MB Simrad multibeam vendor format
0096_20120317_220822_raw.all.mb56.gz 23.09MB Simrad multibeam vendor format
0097_20120317_230822_raw.all.mb56.gz 23.09MB Simrad multibeam vendor format
0098_20120318_000822_raw.all.mb56.gz 21.31MB Simrad multibeam vendor format
0099_20120318_010822_raw.all.mb56.gz 23.48MB Simrad multibeam vendor format
0100_20120318_020822_raw.all.mb56.gz 21.85MB Simrad multibeam vendor format
0101_20120318_030630_raw.all.mb56.gz 1.49MB Simrad multibeam vendor format
0102_20120318_034528_raw.all.mb56.gz 17.97MB Simrad multibeam vendor format
0103_20120318_050536_raw.all.mb56.gz 22.95MB Simrad multibeam vendor format
0104_20120318_060536_raw.all.mb56.gz 22.58MB Simrad multibeam vendor format
0105_20120318_070536_raw.all.mb56.gz 21.68MB Simrad multibeam vendor format
0106_20120318_080536_raw.all.mb56.gz 21.73MB Simrad multibeam vendor format
0107_20120318_090536_raw.all.mb56.gz 22.41MB Simrad multibeam vendor format
0108_20120318_100536_raw.all.mb56.gz 21.66MB Simrad multibeam vendor format
0109_20120318_110119_raw.all.mb56.gz 9.13MB Simrad multibeam vendor format
0110_20120318_113837_raw.all.mb56.gz 12.95MB Simrad multibeam vendor format
0111_20120318_124228_raw.all.mb56.gz 26.91MB Simrad multibeam vendor format
0112_20120318_134228_raw.all.mb56.gz 21.55MB Simrad multibeam vendor format
0113_20120318_164822_raw.all.mb56.gz 4.93MB Simrad multibeam vendor format
0114_20120318_181909_raw.all.mb56.gz 6.49MB Simrad multibeam vendor format
0115_20120318_193358_raw.all.mb56.gz 23.50MB Simrad multibeam vendor format
0116_20120318_203358_raw.all.mb56.gz 20.67MB Simrad multibeam vendor format
0117_20120318_213358_raw.all.mb56.gz 21.90MB Simrad multibeam vendor format
0118_20120318_223358_raw.all.mb56.gz 19.50MB Simrad multibeam vendor format
0119_20120318_233358_raw.all.mb56.gz 23.42MB Simrad multibeam vendor format
0120_20120319_003358_raw.all.mb56.gz 24.60MB Simrad multibeam vendor format
0121_20120319_013358_raw.all.mb56.gz 23.27MB Simrad multibeam vendor format
0122_20120319_023358_raw.all.mb56.gz 18.41MB Simrad multibeam vendor format
0123_20120319_032041_raw.all.mb56.gz 16.76MB Simrad multibeam vendor format
0124_20120319_040113_raw.all.mb56.gz 20.83MB Simrad multibeam vendor format
0125_20120319_050113_raw.all.mb56.gz 22.52MB Simrad multibeam vendor format
0126_20120319_060113_raw.all.mb56.gz 10.46MB Simrad multibeam vendor format
0127_20120319_062632_raw.all.mb56.gz 24.80MB Simrad multibeam vendor format
0128_20120319_072632_raw.all.mb56.gz 24.77MB Simrad multibeam vendor format
0129_20120319_082632_raw.all.mb56.gz 24.72MB Simrad multibeam vendor format
0130_20120319_092632_raw.all.mb56.gz 23.68MB Simrad multibeam vendor format
0131_20120319_102632_raw.all.mb56.gz 22.34MB Simrad multibeam vendor format
0132_20120319_112632_raw.all.mb56.gz 20.53MB Simrad multibeam vendor format
0133_20120319_122632_raw.all.mb56.gz 20.00MB Simrad multibeam vendor format
0134_20120319_132632_raw.all.mb56.gz 19.19MB Simrad multibeam vendor format
0135_20120319_142632_raw.all.mb56.gz 19.38MB Simrad multibeam vendor format
0136_20120319_152632_raw.all.mb56.gz 10.88MB Simrad multibeam vendor format
0137_20120319_162743_raw.all.mb56.gz 3.79MB Simrad multibeam vendor format
0138_20120319_173859_raw.all.mb56.gz 19.78MB Simrad multibeam vendor format
0139_20120319_183859_raw.all.mb56.gz 20.18MB Simrad multibeam vendor format
0140_20120319_193859_raw.all.mb56.gz 19.10MB Simrad multibeam vendor format
0141_20120319_203859_raw.all.mb56.gz 17.34MB Simrad multibeam vendor format
0142_20120319_213859_raw.all.mb56.gz 20.34MB Simrad multibeam vendor format
0143_20120319_223859_raw.all.mb56.gz 20.66MB Simrad multibeam vendor format
0144_20120319_233859_raw.all.mb56.gz 19.88MB Simrad multibeam vendor format
0145_20120320_003859_raw.all.mb56.gz 18.73MB Simrad multibeam vendor format
0146_20120320_013859_raw.all.mb56.gz 19.34MB Simrad multibeam vendor format
0147_20120320_023859_raw.all.mb56.gz 18.95MB Simrad multibeam vendor format
0148_20120320_033859_raw.all.mb56.gz 19.99MB Simrad multibeam vendor format
0149_20120320_043859_raw.all.mb56.gz 19.87MB Simrad multibeam vendor format
0150_20120320_053859_raw.all.mb56.gz 19.03MB Simrad multibeam vendor format
0151_20120320_063859_raw.all.mb56.gz 19.68MB Simrad multibeam vendor format
0152_20120320_073859_raw.all.mb56.gz 10.09MB Simrad multibeam vendor format
0153_20120320_080923_raw.all.mb56.gz 19.57MB Simrad multibeam vendor format
0154_20120320_090923_raw.all.mb56.gz 4.31MB Simrad multibeam vendor format
0155_20120320_121702_raw.all.mb56.gz 15.53MB Simrad multibeam vendor format
0156_20120320_225259_raw.all.mb56.gz 20.83MB Simrad multibeam vendor format
0157_20120320_235300_raw.all.mb56.gz 6.01MB Simrad multibeam vendor format
0158_20120321_024241_raw.all.mb56.gz 19.67MB Simrad multibeam vendor format
0159_20120321_034241_raw.all.mb56.gz 19.27MB Simrad multibeam vendor format
0160_20120321_044241_raw.all.mb56.gz 20.37MB Simrad multibeam vendor format
0161_20120321_054241_raw.all.mb56.gz 20.98MB Simrad multibeam vendor format
0162_20120321_064241_raw.all.mb56.gz 12.43MB Simrad multibeam vendor format
0163_20120321_072512_raw.all.mb56.gz 19.08MB Simrad multibeam vendor format
0164_20120321_082512_raw.all.mb56.gz 9.93MB Simrad multibeam vendor format
0165_20120321_161645_raw.all.mb56.gz 6.77MB Simrad multibeam vendor format
0166_20120321_203116_raw.all.mb56.gz 8.11MB Simrad multibeam vendor format
0167_20120321_215041_raw.all.mb56.gz 8.72MB Simrad multibeam vendor format
0168_20120322_011222_raw.all.mb56.gz 20.79MB Simrad multibeam vendor format
0169_20120322_021222_raw.all.mb56.gz 20.79MB Simrad multibeam vendor format
0170_20120322_031222_raw.all.mb56.gz 20.81MB Simrad multibeam vendor format
0171_20120322_041222_raw.all.mb56.gz 20.76MB Simrad multibeam vendor format
0172_20120322_051222_raw.all.mb56.gz 20.72MB Simrad multibeam vendor format
0173_20120322_061222_raw.all.mb56.gz 20.18MB Simrad multibeam vendor format
0174_20120322_071222_raw.all.mb56.gz 20.78MB Simrad multibeam vendor format
0175_20120322_081222_raw.all.mb56.gz 20.74MB Simrad multibeam vendor format
0176_20120322_091222_raw.all.mb56.gz 19.74MB Simrad multibeam vendor format
0177_20120322_101222_raw.all.mb56.gz 19.71MB Simrad multibeam vendor format
0178_20120322_111222_raw.all.mb56.gz 19.91MB Simrad multibeam vendor format
0179_20120322_121222_raw.all.mb56.gz 20.38MB Simrad multibeam vendor format
0180_20120322_131222_raw.all.mb56.gz 19.68MB Simrad multibeam vendor format
0181_20120322_141222_raw.all.mb56.gz 20.00MB Simrad multibeam vendor format
0182_20120322_151222_raw.all.mb56.gz 20.60MB Simrad multibeam vendor format
0183_20120322_161222_raw.all.mb56.gz 20.54MB Simrad multibeam vendor format
0184_20120322_171222_raw.all.mb56.gz 20.57MB Simrad multibeam vendor format
0185_20120322_181222_raw.all.mb56.gz 19.68MB Simrad multibeam vendor format
0186_20120322_191222_raw.all.mb56.gz 20.75MB Simrad multibeam vendor format
0187_20120322_201222_raw.all.mb56.gz 19.82MB Simrad multibeam vendor format
0188_20120322_211222_raw.all.mb56.gz 18.56MB Simrad multibeam vendor format
0189_20120322_221222_raw.all.mb56.gz 18.21MB Simrad multibeam vendor format
0190_20120322_231222_raw.all.mb56.gz 18.36MB Simrad multibeam vendor format
0191_20120323_001222_raw.all.mb56.gz 18.80MB Simrad multibeam vendor format
0192_20120323_011222_raw.all.mb56.gz 19.07MB Simrad multibeam vendor format
0193_20120323_021222_raw.all.mb56.gz 19.15MB Simrad multibeam vendor format
0194_20120323_031222_raw.all.mb56.gz 19.28MB Simrad multibeam vendor format
0195_20120323_041222_raw.all.mb56.gz 21.59MB Simrad multibeam vendor format
0196_20120323_051222_raw.all.mb56.gz 21.60MB Simrad multibeam vendor format
0197_20120323_061222_raw.all.mb56.gz 21.55MB Simrad multibeam vendor format
0198_20120323_071222_raw.all.mb56.gz 21.53MB Simrad multibeam vendor format
0199_20120323_081221_raw.all.mb56.gz 21.58MB Simrad multibeam vendor format
0200_20120323_091221_raw.all.mb56.gz 21.46MB Simrad multibeam vendor format
0201_20120323_101221_raw.all.mb56.gz 21.34MB Simrad multibeam vendor format
0202_20120323_111221_raw.all.mb56.gz 20.38MB Simrad multibeam vendor format
0203_20120323_121221_raw.all.mb56.gz 21.31MB Simrad multibeam vendor format
0204_20120323_131221_raw.all.mb56.gz 20.95MB Simrad multibeam vendor format
0205_20120323_141221_raw.all.mb56.gz 19.21MB Simrad multibeam vendor format
0206_20120323_151221_raw.all.mb56.gz 19.53MB Simrad multibeam vendor format
0207_20120323_161221_raw.all.mb56.gz 19.35MB Simrad multibeam vendor format
0208_20120323_171221_raw.all.mb56.gz 20.83MB Simrad multibeam vendor format
0209_20120323_181221_raw.all.mb56.gz 20.59MB Simrad multibeam vendor format
0210_20120323_191221_raw.all.mb56.gz 21.39MB Simrad multibeam vendor format
0211_20120323_201221_raw.all.mb56.gz 21.16MB Simrad multibeam vendor format
0212_20120323_211221_raw.all.mb56.gz 21.62MB Simrad multibeam vendor format
0213_20120323_221221_raw.all.mb56.gz 3.40MB Simrad multibeam vendor format
0214_20120323_222148_raw.all.mb56.gz 0.64MB Simrad multibeam vendor format
0215_20120323_222334_raw.all.mb56.gz 361.2KB Simrad multibeam vendor format
0216_20120323_222432_raw.all.mb56.gz 4.15MB Simrad multibeam vendor format
0217_20120323_224358_raw.all.mb56.gz 21.32MB Simrad multibeam vendor format
0218_20120323_234358_raw.all.mb56.gz 22.36MB Simrad multibeam vendor format
0219_20120324_004358_raw.all.mb56.gz 23.06MB Simrad multibeam vendor format
0220_20120324_014358_raw.all.mb56.gz 22.65MB Simrad multibeam vendor format
0221_20120324_024358_raw.all.mb56.gz 21.30MB Simrad multibeam vendor format
0222_20120324_034358_raw.all.mb56.gz 22.16MB Simrad multibeam vendor format
0223_20120324_044358_raw.all.mb56.gz 22.98MB Simrad multibeam vendor format
0224_20120324_054358_raw.all.mb56.gz 21.76MB Simrad multibeam vendor format
0225_20120324_064358_raw.all.mb56.gz 22.89MB Simrad multibeam vendor format
0226_20120324_074358_raw.all.mb56.gz 23.03MB Simrad multibeam vendor format
0227_20120324_084358_raw.all.mb56.gz 22.96MB Simrad multibeam vendor format
0228_20120324_094358_raw.all.mb56.gz 23.03MB Simrad multibeam vendor format
0229_20120324_104358_raw.all.mb56.gz 21.27MB Simrad multibeam vendor format
0230_20120324_114358_raw.all.mb56.gz 18.40MB Simrad multibeam vendor format
0231_20120324_124358_raw.all.mb56.gz 20.85MB Simrad multibeam vendor format
0232_20120324_134358_raw.all.mb56.gz 24.13MB Simrad multibeam vendor format
0233_20120324_144358_raw.all.mb56.gz 18.19MB Simrad multibeam vendor format
0234_20120324_154358_raw.all.mb56.gz 15.74MB Simrad multibeam vendor format
0235_20120324_164358_raw.all.mb56.gz 16.01MB Simrad multibeam vendor format
0236_20120324_203909_raw.all.mb56.gz 18.51MB Simrad multibeam vendor format
0237_20120324_213909_raw.all.mb56.gz 17.81MB Simrad multibeam vendor format
0238_20120324_223909_raw.all.mb56.gz 20.33MB Simrad multibeam vendor format
0239_20120324_233909_raw.all.mb56.gz 21.43MB Simrad multibeam vendor format
0240_20120325_003909_raw.all.mb56.gz 23.27MB Simrad multibeam vendor format
0241_20120325_013909_raw.all.mb56.gz 21.20MB Simrad multibeam vendor format
0242_20120325_023909_raw.all.mb56.gz 17.20MB Simrad multibeam vendor format
0243_20120325_033909_raw.all.mb56.gz 16.53MB Simrad multibeam vendor format
0244_20120325_043909_raw.all.mb56.gz 16.71MB Simrad multibeam vendor format
0245_20120325_053909_raw.all.mb56.gz 16.32MB Simrad multibeam vendor format
0246_20120325_063909_raw.all.mb56.gz 16.55MB Simrad multibeam vendor format
0247_20120325_073909_raw.all.mb56.gz 17.30MB Simrad multibeam vendor format
0248_20120325_083909_raw.all.mb56.gz 17.83MB Simrad multibeam vendor format
0249_20120325_093909_raw.all.mb56.gz 13.58MB Simrad multibeam vendor format
0250_20120325_103909_raw.all.mb56.gz 13.19MB Simrad multibeam vendor format
0251_20120325_113909_raw.all.mb56.gz 15.10MB Simrad multibeam vendor format
0252_20120325_123909_raw.all.mb56.gz 18.82MB Simrad multibeam vendor format
0253_20120325_133909_raw.all.mb56.gz 18.23MB Simrad multibeam vendor format
0254_20120325_143909_raw.all.mb56.gz 18.32MB Simrad multibeam vendor format
0255_20120325_153909_raw.all.mb56.gz 7.24MB Simrad multibeam vendor format
0256_20120325_160832_raw.all.mb56.gz 17.68MB Simrad multibeam vendor format
0257_20120325_170832_raw.all.mb56.gz 16.08MB Simrad multibeam vendor format
0258_20120325_180832_raw.all.mb56.gz 14.69MB Simrad multibeam vendor format
0259_20120325_190832_raw.all.mb56.gz 14.98MB Simrad multibeam vendor format
0260_20120325_200832_raw.all.mb56.gz 14.69MB Simrad multibeam vendor format
0261_20120325_210832_raw.all.mb56.gz 16.52MB Simrad multibeam vendor format
0262_20120325_220832_raw.all.mb56.gz 8.09MB Simrad multibeam vendor format
0263_20120326_005101_raw.all.mb56.gz 15.44MB Simrad multibeam vendor format
0264_20120326_015101_raw.all.mb56.gz 15.40MB Simrad multibeam vendor format
0265_20120326_025101_raw.all.mb56.gz 15.51MB Simrad multibeam vendor format
0266_20120326_035101_raw.all.mb56.gz 15.44MB Simrad multibeam vendor format
0267_20120326_045101_raw.all.mb56.gz 14.28MB Simrad multibeam vendor format
0268_20120326_055101_raw.all.mb56.gz 15.16MB Simrad multibeam vendor format
0269_20120326_065101_raw.all.mb56.gz 14.25MB Simrad multibeam vendor format
0270_20120326_075101_raw.all.mb56.gz 13.73MB Simrad multibeam vendor format
0271_20120326_085101_raw.all.mb56.gz 14.33MB Simrad multibeam vendor format
0272_20120326_095101_raw.all.mb56.gz 14.19MB Simrad multibeam vendor format
0273_20120326_105101_raw.all.mb56.gz 14.01MB Simrad multibeam vendor format
0274_20120326_115101_raw.all.mb56.gz 13.58MB Simrad multibeam vendor format
0275_20120326_125101_raw.all.mb56.gz 15.96MB Simrad multibeam vendor format
0276_20120326_135101_raw.all.mb56.gz 19.28MB Simrad multibeam vendor format
0277_20120326_145101_raw.all.mb56.gz 18.51MB Simrad multibeam vendor format
0278_20120326_155101_raw.all.mb56.gz 17.93MB Simrad multibeam vendor format
0279_20120326_165101_raw.all.mb56.gz 14.71MB Simrad multibeam vendor format
0280_20120326_175102_raw.all.mb56.gz 4.50MB Simrad multibeam vendor format
0281_20120326_180627_raw.all.mb56.gz 18.49MB Simrad multibeam vendor format
0282_20120326_190627_raw.all.mb56.gz 15.87MB Simrad multibeam vendor format
0283_20120326_200627_raw.all.mb56.gz 13.88MB Simrad multibeam vendor format
0284_20120326_210627_raw.all.mb56.gz 12.93MB Simrad multibeam vendor format
0285_20120326_220627_raw.all.mb56.gz 15.01MB Simrad multibeam vendor format
0286_20120326_230627_raw.all.mb56.gz 13.97MB Simrad multibeam vendor format
0287_20120327_000627_raw.all.mb56.gz 12.54MB Simrad multibeam vendor format
0288_20120327_010627_raw.all.mb56.gz 12.40MB Simrad multibeam vendor format
0289_20120327_020627_raw.all.mb56.gz 12.58MB Simrad multibeam vendor format
0290_20120327_030627_raw.all.mb56.gz 12.60MB Simrad multibeam vendor format
0291_20120327_040627_raw.all.mb56.gz 12.21MB Simrad multibeam vendor format
0292_20120327_050627_raw.all.mb56.gz 12.44MB Simrad multibeam vendor format
0293_20120327_060627_raw.all.mb56.gz 13.02MB Simrad multibeam vendor format
0294_20120327_070627_raw.all.mb56.gz 12.68MB Simrad multibeam vendor format
0295_20120327_080627_raw.all.mb56.gz 13.15MB Simrad multibeam vendor format
0296_20120327_090627_raw.all.mb56.gz 12.15MB Simrad multibeam vendor format
0297_20120327_100627_raw.all.mb56.gz 15.22MB Simrad multibeam vendor format
0298_20120327_110627_raw.all.mb56.gz 16.70MB Simrad multibeam vendor format
0299_20120327_120628_raw.all.mb56.gz 20.22MB Simrad multibeam vendor format
0300_20120327_130628_raw.all.mb56.gz 20.81MB Simrad multibeam vendor format
0301_20120327_140628_raw.all.mb56.gz 20.64MB Simrad multibeam vendor format
0302_20120327_150628_raw.all.mb56.gz 16.25MB Simrad multibeam vendor format
0303_20120327_164033_raw.all.mb56.gz 16.99MB Simrad multibeam vendor format
0304_20120327_174033_raw.all.mb56.gz 13.26MB Simrad multibeam vendor format
0305_20120327_184033_raw.all.mb56.gz 15.43MB Simrad multibeam vendor format
0306_20120327_213345_raw.all.mb56.gz 16.74MB Simrad multibeam vendor format
0307_20120327_223345_raw.all.mb56.gz 16.39MB Simrad multibeam vendor format
0308_20120327_233345_raw.all.mb56.gz 14.99MB Simrad multibeam vendor format
0309_20120328_003345_raw.all.mb56.gz 14.94MB Simrad multibeam vendor format
0310_20120328_013345_raw.all.mb56.gz 14.84MB Simrad multibeam vendor format
0311_20120328_023345_raw.all.mb56.gz 2.74MB Simrad multibeam vendor format
0312_20120328_145951_raw.all.mb56.gz 18.56MB Simrad multibeam vendor format
0313_20120328_155951_raw.all.mb56.gz 21.49MB Simrad multibeam vendor format
0314_20120328_165951_raw.all.mb56.gz 19.08MB Simrad multibeam vendor format
0315_20120328_175951_raw.all.mb56.gz 0.74MB Simrad multibeam vendor format
0316_20120329_034801_raw.all.mb56.gz 1.65MB Simrad multibeam vendor format
0317_20120330_200739_raw.all.mb56.gz 7.88MB Simrad multibeam vendor format
0318_20120330_233341_raw.all.mb56.gz 13.60MB Simrad multibeam vendor format
0319_20120331_003341_raw.all.mb56.gz 13.33MB Simrad multibeam vendor format
0320_20120331_013341_raw.all.mb56.gz 8.57MB Simrad multibeam vendor format
0321_20120331_021213_raw.all.mb56.gz 12.67MB Simrad multibeam vendor format
0322_20120331_031213_raw.all.mb56.gz 17.91MB Simrad multibeam vendor format
0323_20120331_041213_raw.all.mb56.gz 17.64MB Simrad multibeam vendor format
0324_20120331_051213_raw.all.mb56.gz 16.43MB Simrad multibeam vendor format
0325_20120331_061213_raw.all.mb56.gz 18.03MB Simrad multibeam vendor format
0326_20120331_071213_raw.all.mb56.gz 17.06MB Simrad multibeam vendor format
0327_20120331_081213_raw.all.mb56.gz 16.58MB Simrad multibeam vendor format
0328_20120331_091213_raw.all.mb56.gz 14.17MB Simrad multibeam vendor format
0329_20120331_101213_raw.all.mb56.gz 14.15MB Simrad multibeam vendor format
0330_20120331_111213_raw.all.mb56.gz 14.41MB Simrad multibeam vendor format
0331_20120331_121213_raw.all.mb56.gz 14.61MB Simrad multibeam vendor format
0332_20120331_131213_raw.all.mb56.gz 14.14MB Simrad multibeam vendor format
0333_20120331_141213_raw.all.mb56.gz 16.76MB Simrad multibeam vendor format
0334_20120331_151213_raw.all.mb56.gz 18.29MB Simrad multibeam vendor format
0335_20120331_161213_raw.all.mb56.gz 15.29MB Simrad multibeam vendor format
0336_20120331_171213_raw.all.mb56.gz 7.80MB Simrad multibeam vendor format
0337_20120401_035826_raw.all.mb56.gz 15.21MB Simrad multibeam vendor format
0338_20120401_045826_raw.all.mb56.gz 15.32MB Simrad multibeam vendor format
0339_20120401_055826_raw.all.mb56.gz 17.15MB Simrad multibeam vendor format
0340_20120401_065826_raw.all.mb56.gz 17.36MB Simrad multibeam vendor format
0341_20120401_075826_raw.all.mb56.gz 15.32MB Simrad multibeam vendor format
0342_20120401_085826_raw.all.mb56.gz 15.38MB Simrad multibeam vendor format
0343_20120401_095826_raw.all.mb56.gz 15.32MB Simrad multibeam vendor format
0344_20120401_105826_raw.all.mb56.gz 15.28MB Simrad multibeam vendor format
0345_20120401_115826_raw.all.mb56.gz 15.48MB Simrad multibeam vendor format
0346_20120401_125826_raw.all.mb56.gz 15.45MB Simrad multibeam vendor format
0347_20120401_135826_raw.all.mb56.gz 15.45MB Simrad multibeam vendor format
0348_20120401_145826_raw.all.mb56.gz 15.49MB Simrad multibeam vendor format
0349_20120401_155826_raw.all.mb56.gz 6.18MB Simrad multibeam vendor format
0350_20120401_170035_raw.all.mb56.gz 14.65MB Simrad multibeam vendor format
0351_20120401_180035_raw.all.mb56.gz 4.16MB Simrad multibeam vendor format
0352_20120401_182620_raw.all.mb56.gz 12.53MB Simrad multibeam vendor format
0353_20120401_191411_raw.all.mb56.gz 21.24MB Simrad multibeam vendor format
0354_20120401_201411_raw.all.mb56.gz 18.50MB Simrad multibeam vendor format
0355_20120401_211411_raw.all.mb56.gz 15.13MB Simrad multibeam vendor format
0356_20120401_221411_raw.all.mb56.gz 19.27MB Simrad multibeam vendor format
0357_20120401_231411_raw.all.mb56.gz 14.42MB Simrad multibeam vendor format
0358_20120402_001411_raw.all.mb56.gz 14.66MB Simrad multibeam vendor format
0359_20120402_011411_raw.all.mb56.gz 15.79MB Simrad multibeam vendor format
0360_20120402_021411_raw.all.mb56.gz 17.07MB Simrad multibeam vendor format
0361_20120402_031411_raw.all.mb56.gz 16.49MB Simrad multibeam vendor format
0362_20120402_041411_raw.all.mb56.gz 17.12MB Simrad multibeam vendor format
0363_20120402_051411_raw.all.mb56.gz 16.78MB Simrad multibeam vendor format
0364_20120402_061411_raw.all.mb56.gz 16.76MB Simrad multibeam vendor format
0365_20120402_071411_raw.all.mb56.gz 17.89MB Simrad multibeam vendor format
0366_20120402_081411_raw.all.mb56.gz 16.89MB Simrad multibeam vendor format
0367_20120402_091411_raw.all.mb56.gz 17.19MB Simrad multibeam vendor format
0368_20120402_101411_raw.all.mb56.gz 17.89MB Simrad multibeam vendor format
0369_20120402_111411_raw.all.mb56.gz 18.08MB Simrad multibeam vendor format
0370_20120402_121411_raw.all.mb56.gz 18.20MB Simrad multibeam vendor format
0371_20120402_131411_raw.all.mb56.gz 17.74MB Simrad multibeam vendor format
0372_20120402_141411_raw.all.mb56.gz 17.44MB Simrad multibeam vendor format
0373_20120402_151411_raw.all.mb56.gz 17.36MB Simrad multibeam vendor format
0374_20120402_161411_raw.all.mb56.gz 16.70MB Simrad multibeam vendor format
0375_20120402_171411_raw.all.mb56.gz 6.74MB Simrad multibeam vendor format
0376_20120405_003127_raw.all.mb56.gz 18.05MB Simrad multibeam vendor format
0377_20120405_013127_raw.all.mb56.gz 16.91MB Simrad multibeam vendor format
0378_20120405_023127_raw.all.mb56.gz 1.31MB Simrad multibeam vendor format
0379_20120405_023609_raw.all.mb56.gz 16.84MB Simrad multibeam vendor format
0380_20120405_033609_raw.all.mb56.gz 16.97MB Simrad multibeam vendor format
0381_20120405_043609_raw.all.mb56.gz 16.61MB Simrad multibeam vendor format
0382_20120405_053609_raw.all.mb56.gz 17.23MB Simrad multibeam vendor format
0383_20120405_063609_raw.all.mb56.gz 17.60MB Simrad multibeam vendor format
0384_20120405_073609_raw.all.mb56.gz 18.49MB Simrad multibeam vendor format
0385_20120405_083609_raw.all.mb56.gz 18.85MB Simrad multibeam vendor format
0386_20120405_093609_raw.all.mb56.gz 19.05MB Simrad multibeam vendor format
0387_20120405_103609_raw.all.mb56.gz 18.61MB Simrad multibeam vendor format
0388_20120405_113609_raw.all.mb56.gz 19.14MB Simrad multibeam vendor format
0389_20120405_123609_raw.all.mb56.gz 19.61MB Simrad multibeam vendor format
0390_20120405_133609_raw.all.mb56.gz 18.08MB Simrad multibeam vendor format
0391_20120405_143609_raw.all.mb56.gz 17.28MB Simrad multibeam vendor format
0392_20120405_153609_raw.all.mb56.gz 16.75MB Simrad multibeam vendor format
0393_20120405_163609_raw.all.mb56.gz 16.39MB Simrad multibeam vendor format
0394_20120405_173609_raw.all.mb56.gz 17.30MB Simrad multibeam vendor format
0395_20120405_183609_raw.all.mb56.gz 16.77MB Simrad multibeam vendor format
0396_20120405_193609_raw.all.mb56.gz 17.68MB Simrad multibeam vendor format
0397_20120405_203609_raw.all.mb56.gz 18.96MB Simrad multibeam vendor format
0398_20120405_213609_raw.all.mb56.gz 19.42MB Simrad multibeam vendor format
0399_20120405_223609_raw.all.mb56.gz 6.60MB Simrad multibeam vendor format
0400_20120406_034913_raw.all.mb56.gz 19.33MB Simrad multibeam vendor format
0401_20120406_044913_raw.all.mb56.gz 19.32MB Simrad multibeam vendor format
0402_20120406_054913_raw.all.mb56.gz 19.34MB Simrad multibeam vendor format
0403_20120406_064913_raw.all.mb56.gz 19.33MB Simrad multibeam vendor format
0404_20120406_074913_raw.all.mb56.gz 19.35MB Simrad multibeam vendor format
0405_20120406_084913_raw.all.mb56.gz 19.29MB Simrad multibeam vendor format
0406_20120406_094913_raw.all.mb56.gz 19.30MB Simrad multibeam vendor format
0407_20120406_104913_raw.all.mb56.gz 17.36MB Simrad multibeam vendor format
0408_20120406_114913_raw.all.mb56.gz 16.66MB Simrad multibeam vendor format
0409_20120406_124913_raw.all.mb56.gz 15.90MB Simrad multibeam vendor format
0410_20120406_134913_raw.all.mb56.gz 16.21MB Simrad multibeam vendor format
0411_20120406_144913_raw.all.mb56.gz 16.58MB Simrad multibeam vendor format
0412_20120406_154913_raw.all.mb56.gz 16.18MB Simrad multibeam vendor format
0413_20120406_164913_raw.all.mb56.gz 17.03MB Simrad multibeam vendor format
0414_20120406_174913_raw.all.mb56.gz 13.80MB Simrad multibeam vendor format
0415_20120407_163755_raw.all.mb56.gz 17.51MB Simrad multibeam vendor format
0416_20120407_173755_raw.all.mb56.gz 16.56MB Simrad multibeam vendor format
0417_20120407_183755_raw.all.mb56.gz 16.07MB Simrad multibeam vendor format
0418_20120407_193755_raw.all.mb56.gz 16.49MB Simrad multibeam vendor format
0419_20120407_203755_raw.all.mb56.gz 15.77MB Simrad multibeam vendor format
0420_20120407_213755_raw.all.mb56.gz 15.83MB Simrad multibeam vendor format
0421_20120407_223755_raw.all.mb56.gz 16.59MB Simrad multibeam vendor format
0422_20120407_233755_raw.all.mb56.gz 16.17MB Simrad multibeam vendor format
0423_20120408_003755_raw.all.mb56.gz 16.19MB Simrad multibeam vendor format
0424_20120408_013755_raw.all.mb56.gz 16.72MB Simrad multibeam vendor format
0425_20120408_023755_raw.all.mb56.gz 16.74MB Simrad multibeam vendor format
0426_20120408_033755_raw.all.mb56.gz 16.29MB Simrad multibeam vendor format
0427_20120408_043755_raw.all.mb56.gz 16.42MB Simrad multibeam vendor format
0428_20120408_053754_raw.all.mb56.gz 15.78MB Simrad multibeam vendor format
0429_20120408_063754_raw.all.mb56.gz 15.79MB Simrad multibeam vendor format
0430_20120408_073754_raw.all.mb56.gz 16.13MB Simrad multibeam vendor format
0431_20120408_083754_raw.all.mb56.gz 15.13MB Simrad multibeam vendor format
0432_20120408_093754_raw.all.mb56.gz 14.59MB Simrad multibeam vendor format
0433_20120408_103754_raw.all.mb56.gz 16.19MB Simrad multibeam vendor format
0434_20120408_113754_raw.all.mb56.gz 14.25MB Simrad multibeam vendor format
0435_20120408_123754_raw.all.mb56.gz 2.66MB Simrad multibeam vendor format
0436_20120408_125539_raw.all.mb56.gz 12.17MB Simrad multibeam vendor format
0437_20120408_135539_raw.all.mb56.gz 12.25MB Simrad multibeam vendor format
0438_20120408_145539_raw.all.mb56.gz 11.50MB Simrad multibeam vendor format
0439_20120408_155539_raw.all.mb56.gz 11.41MB Simrad multibeam vendor format
0440_20120408_165539_raw.all.mb56.gz 12.12MB Simrad multibeam vendor format
0441_20120408_175539_raw.all.mb56.gz 16.83MB Simrad multibeam vendor format
0442_20120408_185539_raw.all.mb56.gz 23.48MB Simrad multibeam vendor format
0443_20120408_195539_raw.all.mb56.gz 14.07MB Simrad multibeam vendor format
0444_20120408_205539_raw.all.mb56.gz 13.10MB Simrad multibeam vendor format
0445_20120408_215539_raw.all.mb56.gz 11.26MB Simrad multibeam vendor format
0446_20120408_224724_raw.all.mb56.gz 13.15MB Simrad multibeam vendor format
0447_20120408_234724_raw.all.mb56.gz 13.36MB Simrad multibeam vendor format
0448_20120409_004724_raw.all.mb56.gz 14.19MB Simrad multibeam vendor format
0449_20120409_014724_raw.all.mb56.gz 13.92MB Simrad multibeam vendor format
0450_20120409_024724_raw.all.mb56.gz 12.57MB Simrad multibeam vendor format
0451_20120409_034724_raw.all.mb56.gz 12.59MB Simrad multibeam vendor format
0452_20120409_044724_raw.all.mb56.gz 12.36MB Simrad multibeam vendor format
0453_20120409_054724_raw.all.mb56.gz 13.14MB Simrad multibeam vendor format
0454_20120409_064724_raw.all.mb56.gz 13.11MB Simrad multibeam vendor format
0455_20120409_074724_raw.all.mb56.gz 12.69MB Simrad multibeam vendor format
0456_20120409_084724_raw.all.mb56.gz 11.12MB Simrad multibeam vendor format
0457_20120409_094724_raw.all.mb56.gz 11.12MB Simrad multibeam vendor format
0458_20120409_104724_raw.all.mb56.gz 12.30MB Simrad multibeam vendor format
0459_20120409_114724_raw.all.mb56.gz 14.26MB Simrad multibeam vendor format
0460_20120409_124724_raw.all.mb56.gz 13.62MB Simrad multibeam vendor format
0461_20120409_134724_raw.all.mb56.gz 13.71MB Simrad multibeam vendor format
0462_20120409_144724_raw.all.mb56.gz 17.31MB Simrad multibeam vendor format
0463_20120409_154724_raw.all.mb56.gz 11.88MB Simrad multibeam vendor format
0464_20120409_162636_raw.all.mb56.gz 26.46MB Simrad multibeam vendor format
0465_20120409_172636_raw.all.mb56.gz 24.62MB Simrad multibeam vendor format
0466_20120409_182636_raw.all.mb56.gz 19.68MB Simrad multibeam vendor format
0467_20120409_192636_raw.all.mb56.gz 20.72MB Simrad multibeam vendor format
0468_20120409_202636_raw.all.mb56.gz 20.11MB Simrad multibeam vendor format
0469_20120409_212636_raw.all.mb56.gz 21.39MB Simrad multibeam vendor format
0470_20120409_222636_raw.all.mb56.gz 7.96MB Simrad multibeam vendor format
0471_20120409_225858_raw.all.mb56.gz 10.27MB Simrad multibeam vendor format
0472_20120409_232832_raw.all.mb56.gz 19.83MB Simrad multibeam vendor format
0473_20120410_002832_raw.all.mb56.gz 19.54MB Simrad multibeam vendor format
0474_20120410_012832_raw.all.mb56.gz 19.80MB Simrad multibeam vendor format
0475_20120410_022832_raw.all.mb56.gz 18.59MB Simrad multibeam vendor format
0476_20120410_032832_raw.all.mb56.gz 18.00MB Simrad multibeam vendor format
0477_20120410_042832_raw.all.mb56.gz 18.86MB Simrad multibeam vendor format
0478_20120410_052832_raw.all.mb56.gz 19.29MB Simrad multibeam vendor format
0479_20120410_062832_raw.all.mb56.gz 20.28MB Simrad multibeam vendor format
0480_20120410_072832_raw.all.mb56.gz 21.22MB Simrad multibeam vendor format
0481_20120410_082832_raw.all.mb56.gz 20.69MB Simrad multibeam vendor format
0482_20120410_092832_raw.all.mb56.gz 19.13MB Simrad multibeam vendor format
0483_20120410_102832_raw.all.mb56.gz 19.93MB Simrad multibeam vendor format
0484_20120410_112832_raw.all.mb56.gz 18.91MB Simrad multibeam vendor format
0485_20120410_122832_raw.all.mb56.gz 18.74MB Simrad multibeam vendor format
0486_20120410_132832_raw.all.mb56.gz 18.29MB Simrad multibeam vendor format
0487_20120410_142832_raw.all.mb56.gz 19.38MB Simrad multibeam vendor format
0488_20120410_152832_raw.all.mb56.gz 17.73MB Simrad multibeam vendor format
0489_20120410_162832_raw.all.mb56.gz 19.44MB Simrad multibeam vendor format
0490_20120410_172832_raw.all.mb56.gz 16.37MB Simrad multibeam vendor format
0491_20120410_182832_raw.all.mb56.gz 6.70MB Simrad multibeam vendor format
0492_20120410_190826_raw.all.mb56.gz 17.76MB Simrad multibeam vendor format
0493_20120410_200826_raw.all.mb56.gz 16.83MB Simrad multibeam vendor format
0494_20120410_210826_raw.all.mb56.gz 17.85MB Simrad multibeam vendor format
0495_20120410_220826_raw.all.mb56.gz 18.35MB Simrad multibeam vendor format
0496_20120410_230827_raw.all.mb56.gz 16.63MB Simrad multibeam vendor format
0497_20120411_000827_raw.all.mb56.gz 17.35MB Simrad multibeam vendor format
0498_20120411_010827_raw.all.mb56.gz 17.54MB Simrad multibeam vendor format
0499_20120411_020827_raw.all.mb56.gz 18.14MB Simrad multibeam vendor format
0500_20120411_030827_raw.all.mb56.gz 17.58MB Simrad multibeam vendor format
0501_20120411_040827_raw.all.mb56.gz 16.77MB Simrad multibeam vendor format
0502_20120411_050828_raw.all.mb56.gz 17.12MB Simrad multibeam vendor format
0503_20120411_060828_raw.all.mb56.gz 17.35MB Simrad multibeam vendor format
0504_20120411_070828_raw.all.mb56.gz 17.82MB Simrad multibeam vendor format
0505_20120411_080828_raw.all.mb56.gz 18.10MB Simrad multibeam vendor format
0506_20120411_090828_raw.all.mb56.gz 18.16MB Simrad multibeam vendor format
0507_20120411_100829_raw.all.mb56.gz 17.75MB Simrad multibeam vendor format
0508_20120411_110829_raw.all.mb56.gz 14.88MB Simrad multibeam vendor format
0509_20120411_120829_raw.all.mb56.gz 19.63MB Simrad multibeam vendor format
0510_20120411_130829_raw.all.mb56.gz 19.99MB Simrad multibeam vendor format
0511_20120411_140829_raw.all.mb56.gz 20.10MB Simrad multibeam vendor format
0512_20120411_150829_raw.all.mb56.gz 19.78MB Simrad multibeam vendor format
0513_20120411_183827_raw.all.mb56.gz 19.19MB Simrad multibeam vendor format
0514_20120411_193827_raw.all.mb56.gz 17.78MB Simrad multibeam vendor format
0515_20120411_203827_raw.all.mb56.gz 18.81MB Simrad multibeam vendor format
0516_20120411_213827_raw.all.mb56.gz 17.59MB Simrad multibeam vendor format
0517_20120411_223827_raw.all.mb56.gz 17.80MB Simrad multibeam vendor format
0518_20120411_233827_raw.all.mb56.gz 16.99MB Simrad multibeam vendor format
0519_20120412_003827_raw.all.mb56.gz 16.29MB Simrad multibeam vendor format
0520_20120412_013827_raw.all.mb56.gz 16.96MB Simrad multibeam vendor format
0521_20120412_023827_raw.all.mb56.gz 18.24MB Simrad multibeam vendor format
0522_20120412_033827_raw.all.mb56.gz 18.79MB Simrad multibeam vendor format
0523_20120412_043827_raw.all.mb56.gz 17.21MB Simrad multibeam vendor format
0524_20120412_053827_raw.all.mb56.gz 16.82MB Simrad multibeam vendor format
0525_20120412_063827_raw.all.mb56.gz 17.15MB Simrad multibeam vendor format
0526_20120412_073827_raw.all.mb56.gz 16.85MB Simrad multibeam vendor format
0527_20120412_083828_raw.all.mb56.gz 15.96MB Simrad multibeam vendor format
0528_20120412_093827_raw.all.mb56.gz 15.74MB Simrad multibeam vendor format
0529_20120412_103828_raw.all.mb56.gz 16.26MB Simrad multibeam vendor format
0530_20120412_113827_raw.all.mb56.gz 16.60MB Simrad multibeam vendor format
0531_20120412_123827_raw.all.mb56.gz 16.35MB Simrad multibeam vendor format
0532_20120412_133827_raw.all.mb56.gz 17.16MB Simrad multibeam vendor format
0533_20120412_143828_raw.all.mb56.gz 16.94MB Simrad multibeam vendor format
0534_20120412_153827_raw.all.mb56.gz 16.31MB Simrad multibeam vendor format
0535_20120412_163827_raw.all.mb56.gz 16.44MB Simrad multibeam vendor format
0536_20120412_173827_raw.all.mb56.gz 16.68MB Simrad multibeam vendor format
0537_20120412_183828_raw.all.mb56.gz 16.69MB Simrad multibeam vendor format
0538_20120412_193827_raw.all.mb56.gz 14.48MB Simrad multibeam vendor format
0539_20120412_203827_raw.all.mb56.gz 13.49MB Simrad multibeam vendor format
0540_20120412_213827_raw.all.mb56.gz 5.33MB Simrad multibeam vendor format
0541_20120412_230414_raw.all.mb56.gz 1.40MB Simrad multibeam vendor format
0542_20120412_231036_raw.all.mb56.gz 13.40MB Simrad multibeam vendor format
0543_20120413_001036_raw.all.mb56.gz 13.35MB Simrad multibeam vendor format
0544_20120413_011036_raw.all.mb56.gz 13.06MB Simrad multibeam vendor format
0545_20120413_021036_raw.all.mb56.gz 13.02MB Simrad multibeam vendor format
0546_20120413_031036_raw.all.mb56.gz 12.82MB Simrad multibeam vendor format
0547_20120413_041036_raw.all.mb56.gz 12.93MB Simrad multibeam vendor format
0548_20120413_051036_raw.all.mb56.gz 12.95MB Simrad multibeam vendor format
0549_20120413_061036_raw.all.mb56.gz 12.97MB Simrad multibeam vendor format
0550_20120413_071036_raw.all.mb56.gz 12.84MB Simrad multibeam vendor format
0551_20120413_081036_raw.all.mb56.gz 12.93MB Simrad multibeam vendor format
0552_20120413_091036_raw.all.mb56.gz 12.93MB Simrad multibeam vendor format
0553_20120413_101036_raw.all.mb56.gz 11.37MB Simrad multibeam vendor format
0554_20120413_165518_raw.all.mb56.gz 12.80MB Simrad multibeam vendor format
0555_20120413_175518_raw.all.mb56.gz 15.10MB Simrad multibeam vendor format
0556_20120413_185518_raw.all.mb56.gz 15.38MB Simrad multibeam vendor format
0557_20120413_195518_raw.all.mb56.gz 16.76MB Simrad multibeam vendor format
0558_20120413_205518_raw.all.mb56.gz 23.18MB Simrad multibeam vendor format
0559_20120413_215518_raw.all.mb56.gz 18.96MB Simrad multibeam vendor format
0560_20120413_225518_raw.all.mb56.gz 13.93MB Simrad multibeam vendor format
0561_20120413_235518_raw.all.mb56.gz 13.50MB Simrad multibeam vendor format
0562_20120414_005518_raw.all.mb56.gz 14.72MB Simrad multibeam vendor format
0563_20120414_015518_raw.all.mb56.gz 12.70MB Simrad multibeam vendor format
0564_20120414_025518_raw.all.mb56.gz 13.55MB Simrad multibeam vendor format
0565_20120414_035518_raw.all.mb56.gz 13.93MB Simrad multibeam vendor format
0566_20120414_045518_raw.all.mb56.gz 15.05MB Simrad multibeam vendor format
0567_20120414_055518_raw.all.mb56.gz 15.09MB Simrad multibeam vendor format
0568_20120414_065518_raw.all.mb56.gz 14.79MB Simrad multibeam vendor format
0569_20120414_075518_raw.all.mb56.gz 14.68MB Simrad multibeam vendor format
0570_20120414_085518_raw.all.mb56.gz 13.96MB Simrad multibeam vendor format
0571_20120414_095518_raw.all.mb56.gz 13.53MB Simrad multibeam vendor format
0572_20120414_105518_raw.all.mb56.gz 13.86MB Simrad multibeam vendor format
0573_20120414_115518_raw.all.mb56.gz 13.55MB Simrad multibeam vendor format
0574_20120414_125518_raw.all.mb56.gz 13.51MB Simrad multibeam vendor format
0575_20120414_135518_raw.all.mb56.gz 13.86MB Simrad multibeam vendor format
0576_20120414_145518_raw.all.mb56.gz 13.90MB Simrad multibeam vendor format
0577_20120414_155518_raw.all.mb56.gz 13.95MB Simrad multibeam vendor format
0578_20120414_165518_raw.all.mb56.gz 13.89MB Simrad multibeam vendor format
0579_20120414_175518_raw.all.mb56.gz 14.00MB Simrad multibeam vendor format
0580_20120414_185518_raw.all.mb56.gz 13.75MB Simrad multibeam vendor format
0581_20120414_195518_raw.all.mb56.gz 13.76MB Simrad multibeam vendor format
0582_20120414_205518_raw.all.mb56.gz 13.80MB Simrad multibeam vendor format
0583_20120414_215518_raw.all.mb56.gz 13.93MB Simrad multibeam vendor format
0584_20120414_225518_raw.all.mb56.gz 13.94MB Simrad multibeam vendor format
0585_20120414_235518_raw.all.mb56.gz 13.75MB Simrad multibeam vendor format
0586_20120415_005518_raw.all.mb56.gz 14.40MB Simrad multibeam vendor format
0587_20120415_015518_raw.all.mb56.gz 15.88MB Simrad multibeam vendor format
0588_20120415_025518_raw.all.mb56.gz 11.91MB Simrad multibeam vendor format
0589_20120415_035518_raw.all.mb56.gz 12.91MB Simrad multibeam vendor format
0590_20120415_045518_raw.all.mb56.gz 12.87MB Simrad multibeam vendor format
0591_20120415_055518_raw.all.mb56.gz 14.60MB Simrad multibeam vendor format
0592_20120415_065518_raw.all.mb56.gz 14.46MB Simrad multibeam vendor format
0593_20120415_075518_raw.all.mb56.gz 14.90MB Simrad multibeam vendor format
0594_20120415_085518_raw.all.mb56.gz 20.75MB Simrad multibeam vendor format
0595_20120415_095518_raw.all.mb56.gz 23.03MB Simrad multibeam vendor format
0596_20120415_105518_raw.all.mb56.gz 39.41MB Simrad multibeam vendor format
0597_20120415_115518_raw.all.mb56.gz 41.16MB Simrad multibeam vendor format
0598_20120415_125518_raw.all.mb56.gz 25.19MB Simrad multibeam vendor format
0599_20120415_135518_raw.all.mb56.gz 21.19MB Simrad multibeam vendor format
0600_20120415_145518_raw.all.mb56.gz 19.64MB Simrad multibeam vendor format
0601_20120415_155518_raw.all.mb56.gz 20.53MB Simrad multibeam vendor format
0602_20120415_165518_raw.all.mb56.gz 20.05MB Simrad multibeam vendor format
0603_20120415_175518_raw.all.mb56.gz 22.94MB Simrad multibeam vendor format
0604_20120415_185518_raw.all.mb56.gz 23.45MB Simrad multibeam vendor format
0605_20120415_195518_raw.all.mb56.gz 21.20MB Simrad multibeam vendor format
0606_20120415_205518_raw.all.mb56.gz 22.40MB Simrad multibeam vendor format
0607_20120415_215518_raw.all.mb56.gz 20.36MB Simrad multibeam vendor format
0608_20120415_225518_raw.all.mb56.gz 21.47MB Simrad multibeam vendor format
0609_20120415_235518_raw.all.mb56.gz 20.84MB Simrad multibeam vendor format
0610_20120416_005518_raw.all.mb56.gz 18.41MB Simrad multibeam vendor format
0611_20120416_015518_raw.all.mb56.gz 18.63MB Simrad multibeam vendor format
0612_20120416_025518_raw.all.mb56.gz 19.53MB Simrad multibeam vendor format
0613_20120416_035518_raw.all.mb56.gz 18.55MB Simrad multibeam vendor format
0614_20120416_045518_raw.all.mb56.gz 19.86MB Simrad multibeam vendor format
0615_20120416_055518_raw.all.mb56.gz 16.60MB Simrad multibeam vendor format
0616_20120416_065518_raw.all.mb56.gz 18.57MB Simrad multibeam vendor format
0617_20120416_075518_raw.all.mb56.gz 19.55MB Simrad multibeam vendor format
0618_20120416_085518_raw.all.mb56.gz 20.37MB Simrad multibeam vendor format
0619_20120416_095518_raw.all.mb56.gz 18.45MB Simrad multibeam vendor format
0620_20120416_105518_raw.all.mb56.gz 16.02MB Simrad multibeam vendor format
0621_20120416_115518_raw.all.mb56.gz 14.22MB Simrad multibeam vendor format
0622_20120416_125518_raw.all.mb56.gz 12.59MB Simrad multibeam vendor format
0623_20120416_135518_raw.all.mb56.gz 12.67MB Simrad multibeam vendor format
0624_20120416_145518_raw.all.mb56.gz 13.29MB Simrad multibeam vendor format
0625_20120416_155518_raw.all.mb56.gz 11.01MB Simrad multibeam vendor format
0626_20120416_165518_raw.all.mb56.gz 10.89MB Simrad multibeam vendor format
0627_20120416_175518_raw.all.mb56.gz 11.32MB Simrad multibeam vendor format
0628_20120416_185518_raw.all.mb56.gz 8.35MB Simrad multibeam vendor format
0629_20120416_193739_raw.all.mb56.gz 18.66MB Simrad multibeam vendor format
0630_20120416_203739_raw.all.mb56.gz 17.09MB Simrad multibeam vendor format
0631_20120416_213739_raw.all.mb56.gz 15.49MB Simrad multibeam vendor format
0632_20120416_223739_raw.all.mb56.gz 9.19MB Simrad multibeam vendor format
0633_20120416_233739_raw.all.mb56.gz 8.09MB Simrad multibeam vendor format
0634_20120417_003739_raw.all.mb56.gz 8.28MB Simrad multibeam vendor format
0635_20120417_013739_raw.all.mb56.gz 3.59MB Simrad multibeam vendor format
0636_20120417_023739_raw.all.mb56.gz 3.78MB Simrad multibeam vendor format
0637_20120417_030452_raw.all.mb56.gz 8.30MB Simrad multibeam vendor format
0638_20120417_040452_raw.all.mb56.gz 8.40MB Simrad multibeam vendor format
0639_20120417_050452_raw.all.mb56.gz 8.27MB Simrad multibeam vendor format
0640_20120417_060452_raw.all.mb56.gz 8.18MB Simrad multibeam vendor format
0641_20120417_070452_raw.all.mb56.gz 8.18MB Simrad multibeam vendor format
0642_20120417_080452_raw.all.mb56.gz 8.21MB Simrad multibeam vendor format
0643_20120417_090452_raw.all.mb56.gz 8.30MB Simrad multibeam vendor format
0644_20120417_100452_raw.all.mb56.gz 8.17MB Simrad multibeam vendor format
0645_20120417_110452_raw.all.mb56.gz 8.24MB Simrad multibeam vendor format
0646_20120417_120452_raw.all.mb56.gz 8.06MB Simrad multibeam vendor format
0647_20120417_130452_raw.all.mb56.gz 8.29MB Simrad multibeam vendor format
0648_20120417_140452_raw.all.mb56.gz 8.60MB Simrad multibeam vendor format
0649_20120417_150452_raw.all.mb56.gz 5.38MB Simrad multibeam vendor format
0650_20120417_154204_raw.all.mb56.gz 8.35MB Simrad multibeam vendor format
0651_20120417_164204_raw.all.mb56.gz 8.30MB Simrad multibeam vendor format
0652_20120417_174204_raw.all.mb56.gz 6.19MB Simrad multibeam vendor format

Metadata Files: 3

Files File Size Description
NBP1203_Multibeam.xml NGDC created ISO metadata
NBP1203.xml 16.7KB XML metadata file
mb_bag_info.tar.gz 18.1KB Additional cruise information